Fairhope, AL

5:35 PM CDT on October 19, 2017 (GMT -0500)
Fairhope

Weather History for KCQF - March, 2014

Change the Weather History Date:

Friday, March 28, 2014

  Actual Average (KBFM) Record (KBFM)
Temperature  
Mean Temperature 60 °F -  
Max Temperature 64 °F 69 °F 82 °F (2009)
Min Temperature 55 °F 51 °F 37 °F (2013)
Degree Days  
Heating Degree Days 6    
Growing Degree Days 10 (Base 50)    
Moisture  
Dew Point 60 °F    
Average Humidity 96    
Maximum Humidity 100    
Minimum Humidity 88    
Precipitation  
Precipitation 2.33 in - - ()
Sea Level Pressure  
Sea Level Pressure 29.96 in    
Wind  
Wind Speed 10 mph (ESE)    
Max Wind Speed 23 mph    
Max Gust Speed 40 mph    
Visibility 8 miles    
Events Rain    
Averages and records for this station are not official NWS values.
T = Trace of Precipitation, MM = Missing Value Source: NWS Daily Summary

Daily Weather History Graph

Daily Weather History Graph

Search for Another Location

Airport or City:

Trip Planner

Search our weather history database for the weather conditions in past years. The results will help you decide how hot, cold, wet, or windy it might be!

Date:

Astronomy

Mar. 28, 2014 Rise Set
Actual Time 6:45 AM CDT 7:07 PM CDT
Civil Twilight 6:21 AM CDT 7:32 PM CDT
Nautical Twilight 5:53 AM CDT 8:00 PM CDT
Astronomical Twilight 5:24 AM CDT 8:28 PM CDT
Moon 5:06 AM CDT (3/28) 5:11 PM CDT (3/28)
Length of Visible Light 13h 10m
Length of Day
12h 22m
Waning Crescent, 6% of the Moon is Illuminated
Mar 28
Waning Crescent
Mar 30
New
Apr 7
First Quarter
Apr 15
Full
Apr 22
Last Quarter

Hourly Weather History & Observations

Time (CDT) Temp. Dew Point Humidity Pressure Visibility Wind Dir Wind Speed Gust Speed Precip Events Conditions
12:15 AM 62.6 °F 60.8 °F 94% 30.02 in 7.0 mi SE 12.7 mph 17.3 mph N/A   Overcast
12:35 AM 62.6 °F 60.8 °F 94% 30.02 in 10.0 mi SE 11.5 mph 18.4 mph N/A   Overcast
12:55 AM 62.6 °F 60.8 °F 94% 30.02 in 10.0 mi SE 12.7 mph 17.3 mph N/A   Overcast
1:15 AM 62.6 °F 60.8 °F 94% 30.02 in 7.0 mi SE 10.4 mph 17.3 mph N/A Rain Rain
1:35 AM 62.6 °F 60.8 °F 94% 30.01 in 10.0 mi SE 9.2 mph - N/A   Overcast
1:55 AM 64.4 °F 60.8 °F 88% 30.00 in 10.0 mi SE 8.1 mph - N/A   Overcast
2:15 AM 64.4 °F 60.8 °F 88% 29.99 in 10.0 mi SE 10.4 mph 17.3 mph N/A   Overcast
2:35 AM 64.4 °F 60.8 °F 88% 29.97 in 10.0 mi ESE 11.5 mph 20.7 mph N/A   Overcast
2:55 AM 64.4 °F 62.6 °F 94% 29.97 in 10.0 mi SE 9.2 mph - N/A   Overcast
3:15 AM 64.4 °F 62.6 °F 94% 29.95 in 7.0 mi SE 9.2 mph 17.3 mph N/A Rain Light Rain
3:35 AM 64.4 °F 62.6 °F 94% 29.95 in 7.0 mi ESE 9.2 mph - N/A   Overcast
3:55 AM 64.4 °F 62.6 °F 94% 29.95 in 7.0 mi ESE 6.9 mph - 0.02 in Rain Rain
4:15 AM 64.4 °F 62.6 °F 94% 29.94 in 4.0 mi SE 13.8 mph - 0.08 in Rain Heavy Rain
4:35 AM 62.6 °F 62.6 °F 100% 29.94 in 7.0 mi ESE 12.7 mph 17.3 mph 0.15 in Rain Light Rain
4:55 AM 62.6 °F 62.6 °F 100% 29.94 in 7.0 mi ESE 10.4 mph - 0.15 in   Light Drizzle
5:15 AM 62.6 °F 62.6 °F 100% 29.93 in 7.0 mi East 8.1 mph - 0.01 in   Overcast
5:35 AM 62.6 °F 62.6 °F 100% 29.97 in 7.0 mi North 6.9 mph - 0.01 in   Overcast
5:55 AM 64.4 °F 62.6 °F 94% 29.95 in 3.0 mi ESE 13.8 mph 25.3 mph 0.26 in Rain Rain
6:15 AM 64.4 °F 62.6 °F 94% 29.95 in 7.0 mi ESE 10.4 mph - 0.01 in Rain Light Rain
6:35 AM 62.6 °F 62.6 °F 100% 29.94 in 10.0 mi East 9.2 mph - 0.02 in Rain Rain
7:15 AM 62.6 °F 62.6 °F 100% 29.95 in 5.0 mi SE 5.8 mph - N/A   Overcast
7:35 AM 62.6 °F 62.6 °F 100% 29.96 in 7.0 mi Calm Calm - N/A   Overcast
7:55 AM 64.4 °F 62.6 °F 94% 29.97 in - NE 8.1 mph - 0.10 in Rain Heavy Rain
8:15 AM 64.4 °F 62.6 °F 94% 29.97 in 3.0 mi ESE 8.1 mph 20.7 mph 0.22 in Rain Heavy Rain
8:35 AM 64.4 °F 62.6 °F 94% 29.94 in 7.0 mi East 9.2 mph - 0.23 in Rain Rain
8:55 AM 62.6 °F 62.6 °F 100% 29.95 in 7.0 mi East 4.6 mph - 0.24 in Rain Rain
9:15 AM 62.6 °F 62.6 °F 100% 29.95 in 4.0 mi NNE 23.0 mph - 0.12 in Rain Heavy Rain
9:35 AM 59.0 °F 59.0 °F 100% 29.97 in 0.5 mi North 19.6 mph 40.3 mph 1.13 in Rain Heavy Rain
9:55 AM 59.0 °F 59.0 °F 100% 30.07 in - North 9.2 mph - 0.27 in Rain Heavy Rain
10:15 AM 59.0 °F 59.0 °F 100% 30.02 in 2.5 mi NNE 17.3 mph 24.2 mph N/A Rain Heavy Rain
10:35 AM 59.0 °F 57.2 °F 94% 30.01 in 10.0 mi NE 17.3 mph 26.5 mph N/A Rain Light Rain
10:55 AM 59.0 °F 57.2 °F 94% 30.02 in 10.0 mi NE 18.4 mph 23.0 mph N/A Rain Light Rain
11:15 AM 59.0 °F 57.2 °F 94% 30.02 in 10.0 mi NNE 13.8 mph 21.9 mph 0.01 in Rain Light Rain
11:35 AM 59.0 °F 57.2 °F 94% 30.03 in 10.0 mi NE 16.1 mph 20.7 mph 0.03 in Rain Light Rain
11:55 AM 59.0 °F 57.2 °F 94% 30.03 in 10.0 mi NE 16.1 mph 20.7 mph 0.04 in Rain Rain
12:15 PM 59.0 °F 57.2 °F 94% 30.00 in 10.0 mi NE 18.4 mph 23.0 mph 0.01 in Rain Light Rain
12:35 PM 59.0 °F 57.2 °F 94% 29.99 in 10.0 mi NE 15.0 mph 24.2 mph 0.02 in Rain Light Rain
12:55 PM 59.0 °F 57.2 °F 94% 30.00 in 7.0 mi NE 12.7 mph 19.6 mph 0.04 in Rain Rain
1:15 PM 59.0 °F 57.2 °F 94% 29.98 in 7.0 mi ENE 10.4 mph 16.1 mph 0.03 in Rain Rain
1:35 PM 59.0 °F 57.2 °F 94% 30.01 in 10.0 mi East 6.9 mph - 0.06 in Rain Rain
1:55 PM 59.0 °F 57.2 °F 94% 30.00 in 7.0 mi East 8.1 mph - 0.11 in Rain Rain
2:15 PM 59.0 °F 57.2 °F 94% 29.99 in 5.0 mi East 5.8 mph - 0.06 in Rain Rain
2:35 PM 59.0 °F 57.2 °F 94% 29.98 in 10.0 mi East 8.1 mph - 0.08 in Rain Rain
2:55 PM 59.0 °F 57.2 °F 94% 29.96 in 7.0 mi ESE 9.2 mph - 0.14 in Rain Heavy Rain
3:15 PM 59.0 °F 57.2 °F 94% 29.93 in 10.0 mi ESE 9.2 mph - 0.02 in Rain Rain
3:35 PM 59.0 °F 59.0 °F 100% 29.90 in 10.0 mi SE 12.7 mph - 0.04 in Rain Light Rain
3:55 PM 59.0 °F 59.0 °F 100% 29.92 in 10.0 mi South 12.7 mph - 0.05 in Rain Light Rain
4:15 PM 59.0 °F 57.2 °F 94% 29.88 in 10.0 mi SE 11.5 mph 20.7 mph 0.01 in Rain Light Rain
4:35 PM 59.0 °F 59.0 °F 100% 29.93 in 10.0 mi Calm Calm - 0.01 in Rain Light Rain
4:55 PM 59.0 °F 59.0 °F 100% 29.93 in 10.0 mi NE 4.6 mph - 0.02 in Rain Light Rain
5:15 PM 59.0 °F 59.0 °F 100% 29.94 in 10.0 mi North 3.5 mph - N/A Rain Light Rain
5:35 PM 59.0 °F 59.0 °F 100% 29.94 in 10.0 mi Calm Calm - N/A   Mostly Cloudy
5:55 PM 59.0 °F 59.0 °F 100% 29.95 in 10.0 mi SSE 4.6 mph - N/A Rain Light Rain
6:15 PM 59.0 °F 59.0 °F 100% 29.95 in 10.0 mi NW 4.6 mph - N/A Rain Light Rain
6:35 PM 59.0 °F 59.0 °F 100% 29.92 in 10.0 mi NW 5.8 mph - 0.01 in Rain Light Rain
6:55 PM 59.0 °F 59.0 °F 100% 29.97 in 10.0 mi West 5.8 mph - 0.01 in   Overcast
7:15 PM 59.0 °F 59.0 °F 100% 29.94 in 10.0 mi SSE 8.1 mph - N/A   Overcast
7:35 PM 60.8 °F 59.0 °F 94% 29.93 in 7.0 mi West 4.6 mph 24.2 mph N/A Rain Light Rain
7:55 PM 60.8 °F 59.0 °F 94% 29.96 in 7.0 mi SW 4.6 mph - N/A   Overcast
8:15 PM 60.8 °F 59.0 °F 94% 29.94 in 7.0 mi South 4.6 mph - N/A   Overcast
8:35 PM 59.0 °F 59.0 °F 100% 29.93 in 7.0 mi SW 3.5 mph - N/A   Mostly Cloudy
8:55 PM 60.8 °F 59.0 °F 94% 29.94 in 7.0 mi South 8.1 mph - N/A   Mostly Cloudy
9:15 PM 59.0 °F 59.0 °F 100% 29.94 in 7.0 mi South 4.6 mph - N/A   Mostly Cloudy
9:35 PM 59.0 °F 59.0 °F 100% 29.93 in 7.0 mi Calm Calm - N/A   Scattered Clouds
9:55 PM 59.0 °F 59.0 °F 100% 29.92 in 7.0 mi South 3.5 mph - N/A   Clear
10:15 PM 59.0 °F 57.2 °F 94% 29.93 in 7.0 mi SSE 3.5 mph - N/A   Clear
10:35 PM 59.0 °F 57.2 °F 94% 29.92 in 7.0 mi Calm Calm - N/A   Clear
10:55 PM 59.0 °F 57.2 °F 94% 29.89 in 7.0 mi Calm Calm - N/A   Clear
11:15 PM 57.2 °F 57.2 °F 100% 29.87 in 7.0 mi Calm Calm - N/A   Clear
11:35 PM 55.4 °F 55.4 °F 100% 29.89 in 5.0 mi Calm Calm - N/A   Clear
11:55 PM 57.2 °F 57.2 °F 100% 29.88 in 5.0 mi Calm Calm - N/A   Clear